(180238) = 2003 UP225

Discovered at Socorro on 2003-10-22 by LINEAR.

Orbit

Orbit type: Main Belt

Note: WebGL enabled browser required.

epoch2023-09-13.0
epoch JD2460200.5
perihelion date2021-10-06.93553
perihelion JD2459494.43554
argument of perihelion (°)77.50147
ascending node (°)26.56878
inclination (°)7.23880
eccentricity0.2395178
perihelion distance (AU)1.7639982
Tisserand w.r.t. Jupiter3.5
ΔV w.r.t. Earth (km/sec)8.5
semimajor axis (AU)2.3195787
mean anomaly (°)196.98562
mean daily motion (°/day)0.27899100
aphelion distance (AU)2.875
period (years)3.53
P-vector [x]-0.23963095
P-vector [y]0.83463651
P-vector [z]0.49594244
Q-vector [x]-0.96922687
Q-vector [y]-0.23531292
Q-vector [z]-0.07229871
absolute magnitude16.56
phase slope0.15
uncertainty0
referenceMPEC 2023-X132
observations used858
oppositions15
arc length (days)10638
first opposition used1994
last opposition used2023
residual rms (arc-secs)0.73
perturbers coarse indicatorM-v
perturbers precise indicator003Ek
first observation date used1994-05-02.0
last observation date used2023-06-17.0
computer nameMPCLINUX
JD of orbit computation2456581.574937
perihelion JD uncertainty (days)6.1673E-05
argument of perihelion uncertainty (°)4.0998E-05
ascending node uncertainty (°)3.6750E-05
inclination uncertainty (°)6.7376E-06
eccentricity uncertainty 5.6456E-08
perihelion distance uncertainty (AU)1.3583E-07
Minimum Orbit Intersection Distances (in AU)
for orbit epoch: 2460200.5, reference: E2023-XD2
Mercury1.44851
Venus1.05057
Earth0.79619
Mars0.21619
Jupiter2.32027
Saturn7.15312
Uranus16.2753
Neptune27.3875

Observations

869 total observations over interval: 1994 05 02.23434 – 2023 06 17.469262
These data are available for download (format description).

Date (UT) J2000 RA J2000 Dec Magn Location Ref
1994 05 02.23434 14 03 31.03 -14 51 56.0   691 – Steward Observatory, Kitt Peak-Spacewatch MPS 175714
1994 05 02.25852 14 03 29.46 -14 51 52.4   691 – Steward Observatory, Kitt Peak-Spacewatch MPS 175714
1994 05 02.29348 14 03 27.12 -14 51 46.8 19.6 V 691 – Steward Observatory, Kitt Peak-Spacewatch MPS 175714
2001 03 23.33986 14 06 08.08 -11 14 54.4 20.0 V 691 – Steward Observatory, Kitt Peak-Spacewatch MPS 94735
2001 03 23.38304 14 06 05.89 -11 14 52.7 20.4 V 691 – Steward Observatory, Kitt Peak-Spacewatch MPS 94735
2001 03 23.40490 14 06 04.79 -11 14 52.1 20.9 V 691 – Steward Observatory, Kitt Peak-Spacewatch MPS 94735
2001 04 29.22496 13 27 42.75 -09 59 28.9 20.0 V 691 – Steward Observatory, Kitt Peak-Spacewatch MPS 94735
2001 04 29.24606 13 27 41.47 -09 59 26.4 19.9 V 691 – Steward Observatory, Kitt Peak-Spacewatch MPS 94735
2001 04 29.26705 13 27 40.19 -09 59 23.6 19.8 V 691 – Steward Observatory, Kitt Peak-Spacewatch MPS 94735
2003 09 27.37088 05 07 01.56 +26 30 16.9 19.5   704 – Lincoln Laboratory ETS, New Mexico MPS 93420
2003 09 27.38398 05 07 02.47 +26 30 22.7 19.9   704 – Lincoln Laboratory ETS, New Mexico MPS 93420
2003 09 27.39735 05 07 03.69 +26 30 28.0 19.8   704 – Lincoln Laboratory ETS, New Mexico MPS 93420
2003 09 27.42429 05 07 05.75 +26 30 41.0 20.1   704 – Lincoln Laboratory ETS, New Mexico MPS 93420
2003 10 22.36724 05 33 35.49 +29 34 57.1 19.3   704 – Lincoln Laboratory ETS, New Mexico MPS 89865
2003 10 22.37910 05 33 35.96 +29 35 02.3 19.9   704 – Lincoln Laboratory ETS, New Mexico MPS 89865
2003 10 22.39056 05 33 36.35 +29 35 08.7 19.4   704 – Lincoln Laboratory ETS, New Mexico MPS 89865
2003 10 22.40191 05 33 36.82 +29 35 14.4 19.5   704 – Lincoln Laboratory ETS, New Mexico MPS 89865
2003 10 22.41336 05 33 37.28 +29 35 19.3 19.4   704 – Lincoln Laboratory ETS, New Mexico MPS 89865
2003 10 25.38135 05 35 31.86 +29 58 49.9 18.9   704 – Lincoln Laboratory ETS, New Mexico MPS 89865
2003 10 25.39303 05 35 32.29 +29 58 55.7 19.5   704 – Lincoln Laboratory ETS, New Mexico MPS 89865
2003 10 25.40492 05 35 32.63 +29 59 01.5 19.4   704 – Lincoln Laboratory ETS, New Mexico MPS 89865
2003 10 25.42937 05 35 33.47 +29 59 13.2 19.7   704 – Lincoln Laboratory ETS, New Mexico MPS 89865
2003 11 03.32203 05 39 13.66 +31 11 57.3 18.8   704 – Lincoln Laboratory ETS, New Mexico MPS 93420
2003 11 03.33405 05 39 13.83 +31 12 03.8 19.3   704 – Lincoln Laboratory ETS, New Mexico MPS 93420
2003 11 03.34593 05 39 13.90 +31 12 09.0 19.1   704 – Lincoln Laboratory ETS, New Mexico MPS 93420
2003 11 03.35798 05 39 14.09 +31 12 13.3 20.1   704 – Lincoln Laboratory ETS, New Mexico MPS 93420
2003 11 03.36999 05 39 14.14 +31 12 22.4 19.4   704 – Lincoln Laboratory ETS, New Mexico MPS 93420
2003 11 19.31957 05 37 12.56 +33 26 28.2 18.1   704 – Lincoln Laboratory ETS, New Mexico MPS 93420
2003 11 19.33259 05 37 12.12 +33 26 34.5 18.3   704 – Lincoln Laboratory ETS, New Mexico MPS 93420
2003 11 19.34538 05 37 11.70 +33 26 40.7 18.6   704 – Lincoln Laboratory ETS, New Mexico MPS 93420
2003 11 19.35836 05 37 11.31 +33 26 47.8 18.8   704 – Lincoln Laboratory ETS, New Mexico MPS 93420
2003 11 19.37096 05 37 10.81 +33 26 53.4 18.7   704 – Lincoln Laboratory ETS, New Mexico MPS 93420
2003 12 03.26529 05 26 22.91 +35 09 18.3 17.9   704 – Lincoln Laboratory ETS, New Mexico MPS 93420
2003 12 03.27857 05 26 22.07 +35 09 23.2 17.6   704 – Lincoln Laboratory ETS, New Mexico MPS 93420
2003 12 03.29160 05 26 21.20 +35 09 28.1 18.1   704 – Lincoln Laboratory ETS, New Mexico MPS 93420
2003 12 03.30449 05 26 20.37 +35 09 33.0 18.3   704 – Lincoln Laboratory ETS, New Mexico MPS 93420
2003 12 03.31760 05 26 19.51 +35 09 37.9 17.9   704 – Lincoln Laboratory ETS, New Mexico MPS 93420
2003 12 17.26319 05 10 33.46 +36 12 33.0 18.2   704 – Lincoln Laboratory ETS, New Mexico MPS 93749
2003 12 17.27630 05 10 32.47 +36 12 35.4 18.0   704 – Lincoln Laboratory ETS, New Mexico MPS 93749
2003 12 17.28931 05 10 31.52 +36 12 37.3 18.0   704 – Lincoln Laboratory ETS, New Mexico MPS 93749
2003 12 17.30276 05 10 30.48 +36 12 39.4 18.1   704 – Lincoln Laboratory ETS, New Mexico MPS 93749
2003 12 17.31589 05 10 29.54 +36 12 41.4 18.1   704 – Lincoln Laboratory ETS, New Mexico MPS 93749
2003 12 18.27201 05 09 23.33 +36 15 05.0 17.7   704 – Lincoln Laboratory ETS, New Mexico MPS 93749
2003 12 18.28541 05 09 22.42 +36 15 06.8 18.0   704 – Lincoln Laboratory ETS, New Mexico MPS 93749
2003 12 18.30029 05 09 21.23 +36 15 08.6 19.0   704 – Lincoln Laboratory ETS, New Mexico MPS 93749
2003 12 18.31529 05 09 20.18 +36 15 08.4 20.0   704 – Lincoln Laboratory ETS, New Mexico MPS 93749
2003 12 18.32926 05 09 19.06 +36 15 12.3 18.1   704 – Lincoln Laboratory ETS, New Mexico MPS 93749
2003 12 19.26076 05 08 15.28 +36 17 17.3 17.7   704 – Lincoln Laboratory ETS, New Mexico MPS 94735
2003 12 19.27426 05 08 14.29 +36 17 19.1 18.1   704 – Lincoln Laboratory ETS, New Mexico MPS 94735
2003 12 19.28755 05 08 13.29 +36 17 21.3 18.5   704 – Lincoln Laboratory ETS, New Mexico MPS 94735
2003 12 19.30078 05 08 12.35 +36 17 22.1 18.0   704 – Lincoln Laboratory ETS, New Mexico MPS 94735
2003 12 19.31410 05 08 11.38 +36 17 23.9 18.1   704 – Lincoln Laboratory ETS, New Mexico MPS 94735
2003 12 20.19855 05 07 11.70 +36 19 06.8 17.7   704 – Lincoln Laboratory ETS, New Mexico MPS 94735
2003 12 20.21301 05 07 10.68 +36 19 08.8 18.0   704 – Lincoln Laboratory ETS, New Mexico MPS 94735
2003 12 20.22739 05 07 09.65 +36 19 10.4 18.0   704 – Lincoln Laboratory ETS, New Mexico MPS 94735
2003 12 20.23993 05 07 08.74 +36 19 11.7 18.1   704 – Lincoln Laboratory ETS, New Mexico MPS 94735
2003 12 20.25255 05 07 07.79 +36 19 13.3 18.3   704 – Lincoln Laboratory ETS, New Mexico MPS 94735
2003 12 21.19970 05 06 04.42 +36 20 47.8 18.1   704 – Lincoln Laboratory ETS, New Mexico MPS 94735
2003 12 21.21253 05 06 03.54 +36 20 48.5 18.2   704 – Lincoln Laboratory ETS, New Mexico MPS 94735
2003 12 21.22566 05 06 02.58 +36 20 49.6 18.1   704 – Lincoln Laboratory ETS, New Mexico MPS 94735
2003 12 21.23844 05 06 01.67 +36 20 51.7 18.1   704 – Lincoln Laboratory ETS, New Mexico MPS 94735
2003 12 21.25183 05 06 00.75 +36 20 53.7 18.4   704 – Lincoln Laboratory ETS, New Mexico MPS 94735
2003 12 27.23668 04 59 48.22 +36 25 34.3 18.2   704 – Lincoln Laboratory ETS, New Mexico MPS 95822
2003 12 27.25070 04 59 47.37 +36 25 34.4 18.4   704 – Lincoln Laboratory ETS, New Mexico MPS 95822
2003 12 27.26378 04 59 46.59 +36 25 34.5 18.4   704 – Lincoln Laboratory ETS, New Mexico MPS 95822
2003 12 27.27781 04 59 45.70 +36 25 34.1 18.2   704 – Lincoln Laboratory ETS, New Mexico MPS 95822
2003 12 27.29333 04 59 44.65 +36 25 34.2 18.5   704 – Lincoln Laboratory ETS, New Mexico MPS 95822
2003 12 29.23768 04 57 58.36 +36 25 11.9 17.8   704 – Lincoln Laboratory ETS, New Mexico MPS 95822
2003 12 29.25069 04 57 57.62 +36 25 11.4 18.0   704 – Lincoln Laboratory ETS, New Mexico MPS 95822
2003 12 29.26577 04 57 56.76 +36 25 11.2 18.0   704 – Lincoln Laboratory ETS, New Mexico MPS 95822
2003 12 29.27925 04 57 55.98 +36 25 11.3 18.2   704 – Lincoln Laboratory ETS, New Mexico MPS 95822
2003 12 29.29298 04 57 55.20 +36 25 10.2 17.9   704 – Lincoln Laboratory ETS, New Mexico MPS 95822
2004 01 19.20918 04 49 36.94 +35 43 38.8 18.6   704 – Lincoln Laboratory ETS, New Mexico MPS 97021
2004 01 19.22203 04 49 36.98 +35 43 35.0 19.6   704 – Lincoln Laboratory ETS, New Mexico MPS 97021
2004 01 19.23488 04 49 37.00 +35 43 33.2 19.7   704 – Lincoln Laboratory ETS, New Mexico MPS 97021
2004 01 19.24757 04 49 37.06 +35 43 30.7 19.8   704 – Lincoln Laboratory ETS, New Mexico MPS 97021
2004 01 19.26038 04 49 37.12 +35 43 27.4 18.9   704 – Lincoln Laboratory ETS, New Mexico MPS 97021
2004 02 11.17174 05 05 24.20 +34 33 05.0 19.1   704 – Lincoln Laboratory ETS, New Mexico MPS 98804
2004 02 11.19594 05 05 25.73 +34 33 00.3 20.6   704 – Lincoln Laboratory ETS, New Mexico MPS 98804
2004 02 11.20792 05 05 26.70 +34 32 57.8 19.5   704 – Lincoln Laboratory ETS, New Mexico MPS 98804
2004 02 11.22005 05 05 27.53 +34 32 57.2 19.9   704 – Lincoln Laboratory ETS, New Mexico MPS 98804
2006 08 29.25074 23 16 37.52 -14 05 38.7 19.4 V 703 – Catalina Sky Survey MPS 176999
